14-01-2023, 00:00:05,    166,    1.7,    5.5,   0.00,   0.00, 1007.8,   79.1, -999.0
14-01-2023, 00:00:15,    168,    0.6,    5.5,   0.00,   0.00, 1007.8,   79.0, -999.0
14-01-2023, 00:00:24,    171,    0.0,    5.5,   0.00,   0.00, 1007.8,   78.9, -999.0
14-01-2023, 00:00:35,    211,    1.6,    5.5,   0.00,   0.00, 1007.8,   78.9, -999.0
14-01-2023, 00:00:45,    190,    2.6,    5.6,   0.00,   0.00, 1007.9,   79.2, -999.0
14-01-2023, 00:00:54,    188,    1.3,    5.6,   0.00,   0.00, 1007.9,   79.2, -999.0
14-01-2023, 00:01:04,    170,    1.9,    5.6,   0.00,   0.00, 1007.9,   79.2, -999.0
14-01-2023, 00:01:15,    186,    0.7,    5.6,   0.00,   0.00, 1007.8,   79.1, -999.0
14-01-2023, 00:01:25,    187,    0.0,    5.5,   0.00,   0.00, 1007.7,   78.8, -999.0
14-01-2023, 00:01:34,    209,    1.2,    5.5,   0.00,   0.00, 1007.9,   79.1, -999.0
14-01-2023, 00:01:44,    205,    0.2,    5.6,   0.00,   0.00, 1007.8,   79.1, -999.0
14-01-2023, 00:01:55,    180,    0.8,    5.6,   0.00,   0.00, 1007.8,   79.1, -999.0
14-01-2023, 00:02:04,    180,    0.1,    5.5,   0.00,   0.00, 1007.7,   79.0, -999.0
14-01-2023, 00:02:14,    184,    0.0,    5.5,   0.00,   0.00, 1007.8,   78.9, -999.0
14-01-2023, 00:02:25,    184,    0.0,    5.5,   0.00,   0.00, 1007.7,   78.9, -999.0
14-01-2023, 00:02:34,    184,    0.5,    5.6,   0.00,   0.00, 1007.8,   79.1, -999.0
14-01-2023, 00:02:44,    167,    1.7,    5.6,   0.00,   0.00, 1007.8,   79.2, -999.0
14-01-2023, 00:02:54,    223,    0.3,    5.5,   0.00,   0.00, 1007.8,   79.1, -999.0
14-01-2023, 00:03:04,    208,    1.0,    5.5,   0.00,   0.00, 1007.8,   79.2, -999.0
14-01-2023, 00:03:14,    197,    0.3,    5.6,   0.00,   0.00, 1007.8,   79.2, -999.0
14-01-2023, 00:03:24,    198,    0.0,    5.5,   0.00,   0.00, 1007.7,   79.1, -999.0
14-01-2023, 00:03:34,    210,    1.5,    5.6,   0.00,   0.00, 1007.8,   79.1, -999.0
14-01-2023, 00:03:44,    188,    3.2,    5.6,   0.00,   0.00, 1007.8,   79.3, -999.0
14-01-2023, 00:03:54,    181,    2.9,    5.6,   0.00,   0.00, 1007.8,   79.2, -999.0
14-01-2023, 00:04:04,    186,    1.5,    5.6,   0.00,   0.00, 1007.8,   79.2, -999.0
14-01-2023, 00:04:14,    181,    3.1,    5.6,   0.00,   0.00, 1007.8,   79.1, -999.0
14-01-2023, 00:04:24,    180,    3.2,    5.7,   0.00,   0.00, 1007.8,   79.3, -999.0
14-01-2023, 00:04:34,    173,    1.0,    5.6,   0.00,   0.00, 1007.8,   79.2, -999.0
14-01-2023, 00:04:44,    205,    1.2,    5.6,   0.00,   0.00, 1007.8,   79.2, -999.0
14-01-2023, 00:04:54,    207,    2.4,    5.6,   0.00,   0.00, 1007.8,   79.3, -999.0
14-01-2023, 00:05:04,    212,    1.4,    5.7,   0.00,   0.00, 1007.8,   79.4, -999.0
14-01-2023, 00:05:14,    206,    3.2,    5.6,   0.00,   0.00, 1007.8,   79.3, -999.0
14-01-2023, 00:05:24,    177,    3.4,    5.6,   0.00,   0.00, 1007.8,   79.3, -999.0
14-01-2023, 00:05:34,    230,    2.0,    5.7,   0.00,   0.00, 1007.7,   79.3, -999.0
14-01-2023, 00:05:44,    155,    0.6,    5.7,   0.00,   0.00, 1007.7,   79.2, -999.0
14-01-2023, 00:05:54,    155,    0.0,    5.6,   0.00,   0.00, 1007.7,   79.0, -999.0
14-01-2023, 00:06:04,    152,    2.0,    5.6,   0.00,   0.00, 1007.8,   79.1, -999.0
14-01-2023, 00:06:14,    162,    1.5,    5.7,   0.00,   0.00, 1007.8,   79.2, -999.0
14-01-2023, 00:06:24,    186,    0.7,    5.7,   0.00,   0.00, 1007.8,   79.2, -999.0
14-01-2023, 00:06:34,    185,    1.4,    5.7,   0.00,   0.00, 1007.8,   79.2, -999.0
14-01-2023, 00:06:44,    196,    1.9,    5.7,   0.00,   0.00, 1007.8,   79.2, -999.0
14-01-2023, 00:06:54,    184,    0.8,    5.6,   0.00,   0.00, 1007.8,   79.1, -999.0
14-01-2023, 00:07:04,    215,    2.4,    5.7,   0.00,   0.00, 1007.8,   79.2, -999.0
14-01-2023, 00:07:14,    224,    3.6,    5.7,   0.00,   0.00, 1007.7,   79.3, -999.0
14-01-2023, 00:07:24,    187,    2.0,    5.7,   0.00,   0.00, 1007.8,   79.3, -999.0
14-01-2023, 00:07:34,    139,    0.8,    5.7,   0.00,   0.00, 1007.7,   79.2, -999.0
14-01-2023, 00:07:44,    151,    0.1,    5.6,   0.00,   0.00, 1007.6,   79.0, -999.0
14-01-2023, 00:07:54,    176,    0.3,    5.6,   0.00,   0.00, 1007.7,   79.1, -999.0
14-01-2023, 00:08:04,    212,    1.1,    5.7,   0.00,   0.00, 1007.8,   79.1, -999.0
14-01-2023, 00:08:14,    190,    3.2,    5.7,   0.00,   0.00, 1007.8,   79.2, -999.0
14-01-2023, 00:08:24,    172,    5.0,    5.8,   0.00,   0.00, 1007.7,   79.2, -999.0
14-01-2023, 00:08:34,    217,    3.3,    5.8,   0.00,   0.00, 1007.8,   79.2, -999.0
14-01-2023, 00:08:44,    230,    3.7,    5.7,   0.00,   0.00, 1007.8,   79.2, -999.0
14-01-2023, 00:08:54,    210,    3.1,    5.7,   0.00,   0.00, 1007.7,   79.2, -999.0
14-01-2023, 00:09:04,    190,    1.4,    5.8,   0.00,   0.00, 1007.7,   79.1, -999.0
14-01-2023, 00:09:13,    188,    0.6,    5.8,   0.00,   0.00, 1007.7,   79.0, -999.0
14-01-2023, 00:09:24,    201,    1.5,    5.8,   0.00,   0.00, 1007.7,   78.9, -999.0
14-01-2023, 00:09:34,    167,    2.2,    5.8,   0.00,   0.00, 1007.7,   78.9, -999.0
14-01-2023, 00:09:44,    171,    0.2,    5.7,   0.00,   0.00, 1007.6,   78.9, -999.0
14-01-2023, 00:09:53,    188,    0.7,    5.8,   0.00,   0.00, 1007.7,   79.0, -999.0
14-01-2023, 00:10:04,    181,    0.9,    5.8,   0.00,   0.00, 1007.7,   79.0, -999.0
14-01-2023, 00:10:14,    180,    0.2,    5.7,   0.00,   0.00, 1007.6,   78.9, -999.0
14-01-2023, 00:10:23,    159,    1.9,    5.7,   0.00,   0.00, 1007.6,   79.0, -999.0
14-01-2023, 00:10:33,    165,    0.6,    5.8,   0.00,   0.00, 1007.6,   79.0, -999.0
14-01-2023, 00:10:44,    170,    0.1,    5.6,   0.00,   0.00, 1007.6,   78.8, -999.0
14-01-2023, 00:10:53,    154,    1.6,    5.7,   0.00,   0.00, 1007.7,   79.1, -999.0
14-01-2023, 00:11:03,    139,    2.1,    5.8,   0.00,   0.00, 1007.6,   79.1, -999.0
14-01-2023, 00:11:14,    204,    1.3,    5.8,   0.00,   0.00, 1007.7,   79.1, -999.0
14-01-2023, 00:11:24,    162,    0.7,    5.8,   0.00,   0.00, 1007.6,   79.0, -999.0
14-01-2023, 00:11:33,    221,    0.8,    5.8,   0.00,   0.00, 1007.6,   79.1, -999.0
14-01-2023, 00:11:43,    203,    2.0,    5.8,   0.00,   0.00, 1007.6,   79.1, -999.0
14-01-2023, 00:11:54,    173,    1.4,    5.8,   0.00,   0.00, 1007.6,   79.2, -999.0
14-01-2023, 00:12:03,    173,    0.0,    5.7,   0.00,   0.00, 1007.5,   79.0, -999.0
14-01-2023, 00:12:13,    178,    0.3,    5.8,   0.00,   0.00, 1007.6,   79.1, -999.0
14-01-2023, 00:12:23,    184,    1.4,    5.8,   0.00,   0.00, 1007.7,   79.1, -999.0
14-01-2023, 00:12:33,    195,    1.0,    5.8,   0.00,   0.00, 1007.6,   79.2, -999.0
14-01-2023, 00:12:43,    220,    1.9,    5.8,   0.00,   0.00, 1007.6,   79.1, -999.0
14-01-2023, 00:12:53,    188,    2.0,    5.7,   0.00,   0.00, 1007.6,   79.1, -999.0
14-01-2023, 00:13:03,    186,    1.0,    5.8,   0.00,   0.00, 1007.6,   79.2, -999.0
14-01-2023, 00:13:13,    192,    0.9,    5.8,   0.00,   0.00, 1007.6,   79.2, -999.0
14-01-2023, 00:13:23,    187,    0.9,    5.8,   0.00,   0.00, 1007.6,   79.1, -999.0
14-01-2023, 00:13:33,    146,    3.8,    5.7,   0.00,   0.00, 1007.6,   79.2, -999.0
14-01-2023, 00:13:43,    160,    0.7,    5.7,   0.00,   0.00, 1007.4,   78.9, -999.0
14-01-2023, 00:13:53,    209,    1.6,    5.8,   0.00,   0.00, 1007.5,   79.2, -999.0
14-01-2023, 00:14:03,    149,    1.3,    5.8,   0.00,   0.00, 1007.5,   79.1, -999.0
14-01-2023, 00:14:13,    203,    0.4,    5.7,   0.00,   0.00, 1007.5,   79.1, -999.0
14-01-2023, 00:14:23,    203,    0.0,    5.6,   0.00,   0.00, 1007.4,   78.8, -999.0
14-01-2023, 00:14:33,    202,    0.0,    5.7,   0.00,   0.00, 1007.4,   78.8, -999.0
14-01-2023, 00:14:43,    201,    0.0,    5.7,   0.00,   0.00, 1007.3,   78.8, -999.0
14-01-2023, 00:14:53,    163,    0.3,    5.7,   0.00,   0.00, 1007.4,   79.2, -999.0
14-01-2023, 00:15:03,    167,    0.0,    5.6,   0.00,   0.00, 1007.3,   79.0, -999.0
14-01-2023, 00:15:13,    192,    1.0,    5.8,   0.00,   0.00, 1007.5,   79.4, -999.0
14-01-2023, 00:15:23,    193,    0.1,    5.7,   0.00,   0.00, 1007.4,   79.0, -999.0
14-01-2023, 00:15:33,    197,    1.3,    5.7,   0.00,   0.00, 1007.5,   79.4, -999.0
14-01-2023, 00:15:43,    214,    1.5,    5.8,   0.00,   0.00, 1007.5,   79.4, -999.0
14-01-2023, 00:15:53,    212,    0.3,    5.8,   0.00,   0.00, 1007.4,   79.3, -999.0
14-01-2023, 00:16:03,    212,    0.0,    5.7,   0.00,   0.00, 1007.3,   79.0, -999.0
14-01-2023, 00:16:13,    190,    0.3,    5.7,   0.00,   0.00, 1007.4,   79.3, -999.0
14-01-2023, 00:16:23,    201,    0.3,    5.7,   0.00,   0.00, 1007.4,   79.4, -999.0
14-01-2023, 00:16:33,    194,    0.3,    5.7,   0.00,   0.00, 1007.4,   79.3, -999.0
14-01-2023, 00:16:43,    160,    0.8,    5.7,   0.00,   0.00, 1007.4,   79.5, -999.0
14-01-2023, 00:16:53,    211,    0.9,    5.8,   0.00,   0.00, 1007.4,   79.4, -999.0
14-01-2023, 00:17:03,    218,    0.6,    5.7,   0.00,   0.00, 1007.4,   79.3, -999.0
14-01-2023, 00:17:13,    214,    2.5,    5.8,   0.00,   0.00, 1007.4,   79.5, -999.0
14-01-2023, 00:17:23,    202,    0.4,    5.7,   0.00,   0.00, 1007.4,   79.5, -999.0
14-01-2023, 00:17:33,    178,    1.4,    5.8,   0.00,   0.00, 1007.4,   79.6, -999.0
14-01-2023, 00:17:43,    187,    1.8,    5.7,   0.00,   0.00, 1007.4,   79.6, -999.0
14-01-2023, 00:17:53,    212,    1.3,    5.8,   0.00,   0.00, 1007.4,   79.5, -999.0
14-01-2023, 00:18:02,    205,    0.8,    5.8,   0.00,   0.00, 1007.4,   79.5, -999.0
14-01-2023, 00:18:13,    204,    0.2,    5.8,   0.00,   0.00, 1007.4,   79.4, -999.0
14-01-2023, 00:18:23,    205,    0.2,    5.7,   0.00,   0.00, 1007.3,   79.3, -999.0
14-01-2023, 00:18:33,    195,    1.1,    5.8,   0.00,   0.00, 1007.4,   79.5, -999.0
14-01-2023, 00:18:42,    179,    2.3,    5.9,   0.00,   0.00, 1007.4,   79.5, -999.0
14-01-2023, 00:18:53,    211,    2.3,    5.8,   0.00,   0.00, 1007.4,   79.6, -999.0
14-01-2023, 00:19:03,    228,    4.8,    5.8,   0.00,   0.00, 1007.4,   79.5, -999.0
14-01-2023, 00:19:12,    190,    1.0,    5.8,   0.00,   0.00, 1007.3,   79.5, -999.0
14-01-2023, 00:19:22,    155,    0.8,    5.9,   0.00,   0.00, 1007.3,   79.6, -999.0
14-01-2023, 00:19:33,    125,    0.9,    5.9,   0.00,   0.00, 1007.3,   79.5, -999.0
14-01-2023, 00:19:42,    172,    3.1,    5.9,   0.00,   0.00, 1007.3,   79.4, -999.0
14-01-2023, 00:19:52,    189,    1.9,    5.9,   0.00,   0.00, 1007.3,   79.4, -999.0
14-01-2023, 00:20:03,    100,    2.1,    5.9,   0.00,   0.00, 1007.3,   79.4, -999.0
14-01-2023, 00:20:13,    204,    1.1,    5.9,   0.00,   0.00, 1007.3,   79.4, -999.0
14-01-2023, 00:20:22,    224,    1.0,    5.9,   0.00,   0.00, 1007.3,   79.4, -999.0
14-01-2023, 00:20:32,    156,    0.3,    5.8,   0.00,   0.00, 1007.2,   79.3, -999.0
14-01-2023, 00:20:43,    156,    0.1,    5.8,   0.00,   0.00, 1007.1,   79.0, -999.0
14-01-2023, 00:20:52,    203,    0.4,    5.8,   0.00,   0.00, 1007.2,   79.3, -999.0
14-01-2023, 00:21:02,    149,    1.8,    5.9,   0.00,   0.00, 1007.3,   79.4, -999.0
14-01-2023, 00:21:12,    187,    2.0,    5.9,   0.00,   0.00, 1007.2,   79.4, -999.0
14-01-2023, 00:21:22,    167,    1.0,    5.9,   0.00,   0.00, 1007.2,   79.4, -999.0
14-01-2023, 00:21:32,    186,    1.1,    5.9,   0.00,   0.00, 1007.2,   79.4, -999.0
14-01-2023, 00:21:42,    181,    1.4,    5.9,   0.00,   0.00, 1007.2,   79.5, -999.0
14-01-2023, 00:21:52,    213,    1.3,    5.9,   0.00,   0.00, 1007.2,   79.3, -999.0
14-01-2023, 00:22:02,    179,    1.5,    5.9,   0.00,   0.00, 1007.2,   79.4, -999.0
14-01-2023, 00:22:12,    179,    0.1,    5.9,   0.00,   0.00, 1007.1,   79.3, -999.0
14-01-2023, 00:22:22,    179,    0.0,    5.7,   0.00,   0.00, 1007.1,   79.1, -999.0
14-01-2023, 00:22:32,    201,    0.9,    5.9,   0.00,   0.00, 1007.2,   79.4, -999.0
14-01-2023, 00:22:42,    190,    0.4,    5.9,   0.00,   0.00, 1007.2,   79.3, -999.0
14-01-2023, 00:22:52,    207,    3.0,    5.9,   0.00,   0.00, 1007.2,   79.4, -999.0
14-01-2023, 00:23:02,    209,    0.5,    5.9,   0.00,   0.00, 1007.2,   79.5, -999.0
14-01-2023, 00:23:12,    197,    1.8,    5.9,   0.00,   0.00, 1007.2,   79.5, -999.0
14-01-2023, 00:23:22,    207,    1.1,    5.9,   0.00,   0.00, 1007.2,   79.5, -999.0
14-01-2023, 00:23:32,    223,    0.7,    5.9,   0.00,   0.00, 1007.2,   79.5, -999.0
14-01-2023, 00:23:42,    190,    0.2,    5.9,   0.00,   0.00, 1007.1,   79.5, -999.0
14-01-2023, 00:23:52,    202,    0.5,    5.9,   0.00,   0.00, 1007.2,   79.6, -999.0
14-01-2023, 00:24:02,    203,    0.3,    6.0,   0.00,   0.00, 1007.2,   79.4, -999.0
14-01-2023, 00:24:12,    203,    0.0,    5.9,   0.00,   0.00, 1007.1,   79.2, -999.0
14-01-2023, 00:24:22,    203,    0.4,    5.9,   0.00,   0.00, 1007.1,   79.3, -999.0
14-01-2023, 00:24:32,    203,    0.3,    5.9,   0.00,   0.00, 1007.1,   79.3, -999.0
14-01-2023, 00:24:42,     98,    0.4,    5.8,   0.00,   0.00, 1007.0,   79.2, -999.0
14-01-2023, 00:24:52,    151,    0.9,    5.9,   0.00,   0.00, 1007.2,   79.5, -999.0
14-01-2023, 00:25:02,    180,    1.4,    5.9,   0.00,   0.00, 1007.2,   79.5, -999.0
14-01-2023, 00:25:12,    180,    0.0,    5.9,   0.00,   0.00, 1007.1,   79.2, -999.0
14-01-2023, 00:25:22,    179,    0.8,    5.9,   0.00,   0.00, 1007.2,   79.4, -999.0
14-01-2023, 00:25:32,    172,    1.4,    5.9,   0.00,   0.00, 1007.2,   79.4, -999.0
14-01-2023, 00:25:42,    178,    0.4,    5.9,   0.00,   0.00, 1007.1,   79.4, -999.0
14-01-2023, 00:25:52,    178,    0.0,    5.8,   0.00,   0.00, 1007.0,   79.1, -999.0
14-01-2023, 00:26:02,    178,    0.3,    5.9,   0.00,   0.00, 1007.1,   79.4, -999.0
14-01-2023, 00:26:12,    179,    0.0,    5.8,   0.00,   0.00, 1007.1,   79.3, -999.0
14-01-2023, 00:26:22,    179,    0.0,    5.8,   0.00,   0.00, 1007.0,   79.2, -999.0
14-01-2023, 00:26:32,    179,    0.2,    5.9,   0.00,   0.00, 1007.2,   79.6, -999.0
14-01-2023, 00:26:42,    179,    0.0,    5.8,   0.00,   0.00, 1007.0,   79.4, -999.0
14-01-2023, 00:26:52,    188,    0.4,    5.9,   0.00,   0.00, 1007.1,   79.7, -999.0
14-01-2023, 00:27:02,    190,    0.0,    5.7,   0.00,   0.00, 1007.0,   79.5, -999.0
14-01-2023, 00:27:12,    189,    0.0,    5.8,   0.00,   0.00, 1007.1,   79.5, -999.0
14-01-2023, 00:27:22,    166,    0.3,    5.9,   0.00,   0.00, 1007.1,   79.7, -999.0
14-01-2023, 00:27:31,    169,    0.2,    5.8,   0.00,   0.00, 1007.0,   79.7, -999.0
14-01-2023, 00:27:42,    167,    0.3,    5.9,   0.00,   0.00, 1007.1,   79.8, -999.0
14-01-2023, 00:27:52,    172,    0.2,    5.8,   0.00,   0.00, 1007.0,   79.8, -999.0
14-01-2023, 00:28:02,    189,    0.9,    5.9,   0.00,   0.00, 1007.1,   80.0, -999.0
14-01-2023, 00:28:11,    223,    2.2,    5.9,   0.00,   0.00, 1007.1,   80.1, -999.0
14-01-2023, 00:28:22,    173,    3.0,    5.9,   0.00,   0.00, 1007.1,   80.0, -999.0
14-01-2023, 00:28:32,    190,    2.2,    5.9,   0.00,   0.00, 1007.1,   80.1, -999.0
14-01-2023, 00:28:41,    206,    2.2,    5.9,   0.00,   0.00, 1007.1,   80.2, -999.0
14-01-2023, 00:28:51,    180,    1.2,    5.9,   0.00,   0.00, 1007.1,   80.3, -999.0
14-01-2023, 00:29:02,    218,    0.6,    5.8,   0.00,   0.00, 1007.0,   80.2, -999.0
14-01-2023, 00:29:11,    147,    2.1,    5.9,   0.00,   0.00, 1007.1,   80.4, -999.0
14-01-2023, 00:29:21,    164,    1.3,    5.9,   0.00,   0.00, 1007.1,   80.3, -999.0
14-01-2023, 00:29:32,    237,    0.6,    5.9,   0.00,   0.00, 1007.1,   80.4, -999.0
14-01-2023, 00:29:42,    237,    0.2,    5.9,   0.00,   0.00, 1007.0,   80.3, -999.0
14-01-2023, 00:29:51,    236,    0.0,    5.8,   0.00,   0.00, 1007.0,   80.2, -999.0
14-01-2023, 00:30:01,    190,    0.0,    5.7,   0.00,   0.00, 1006.9,   80.3, -999.0
14-01-2023, 00:30:12,    191,    0.0,    5.7,   0.00,   0.00, 1007.0,   80.4, -999.0
14-01-2023, 00:30:21,    246,    0.4,    5.8,   0.00,   0.00, 1007.0,   80.7, -999.0
14-01-2023, 00:30:31,    200,    2.2,    5.9,   0.00,   0.00, 1007.1,   81.0, -999.0
14-01-2023, 00:30:41,    174,    0.8,    5.8,   0.00,   0.00, 1007.0,   80.9, -999.0
14-01-2023, 00:30:52,    167,    0.9,    5.8,   0.00,   0.00, 1007.0,   81.1, -999.0
14-01-2023, 00:31:01,    183,    0.4,    5.9,   0.00,   0.00, 1007.0,   81.1, -999.0
14-01-2023, 00:31:11,    182,    0.3,    5.8,   0.00,   0.00, 1007.0,   81.2, -999.0
14-01-2023, 00:31:21,    190,    0.5,    5.8,   0.00,   0.00, 1007.0,   81.3, -999.0
14-01-2023, 00:31:31,    195,    2.4,    5.9,   0.00,   0.00, 1007.0,   81.4, -999.0
14-01-2023, 00:31:41,    178,    0.6,    5.8,   0.00,   0.00, 1007.0,   81.3, -999.0
14-01-2023, 00:31:51,    172,    0.9,    5.9,   0.00,   0.00, 1007.0,   81.5, -999.0
14-01-2023, 00:32:05,    124,    0.9,    5.8,   0.00,   0.00, 1007.0,   81.4, -999.0
14-01-2023, 00:32:11,    180,    1.5,    5.9,   0.00,   0.00, 1007.0,   81.7, -999.0
14-01-2023, 00:32:21,    214,    1.9,    5.8,   0.00,   0.00, 1007.0,   81.7, -999.0
14-01-2023, 00:32:31,    227,    3.0,    5.9,   0.00,   0.00, 1007.0,   81.7, -999.0
14-01-2023, 00:32:41,    171,    1.7,    5.9,   0.00,   0.00, 1007.0,   81.7, -999.0
14-01-2023, 00:32:51,    154,    0.9,    5.9,   0.00,   0.00, 1007.0,   81.8, -999.0
14-01-2023, 00:33:01,    194,    1.8,    5.9,   0.00,   0.00, 1007.0,   81.9, -999.0
14-01-2023, 00:33:11,    152,    2.6,    5.8,   0.00,   0.00, 1007.0,   82.0, -999.0
14-01-2023, 00:33:21,    156,    1.4,    5.9,   0.00,   0.00, 1007.0,   82.0, -999.0
14-01-2023, 00:33:31,    190,    0.4,    5.8,   0.00,   0.00, 1007.0,   82.0, -999.0
14-01-2023, 00:33:41,    118,    0.3,    5.7,   0.00,   0.00, 1007.0,   82.0, -999.0
14-01-2023, 00:33:51,    152,    0.7,    5.9,   0.00,   0.00, 1007.0,   82.2, -999.0
14-01-2023, 00:34:01,    152,    0.2,    5.8,   0.00,   0.00, 1006.9,   82.0, -999.0
14-01-2023, 00:34:11,    228,    1.0,    5.8,   0.00,   0.00, 1007.0,   82.3, -999.0
14-01-2023, 00:34:21,    113,    0.9,    5.8,   0.00,   0.00, 1007.0,   82.4, -999.0
14-01-2023, 00:34:31,    133,    2.1,    5.9,   0.00,   0.00, 1007.0,   82.5, -999.0
14-01-2023, 00:34:41,    137,    1.6,    5.9,   0.00,   0.00, 1006.9,   82.7, -999.0
14-01-2023, 00:34:51,    150,    1.3,    5.8,   0.00,   0.00, 1006.9,   82.7, -999.0
14-01-2023, 00:35:01,    150,    0.6,    5.8,   0.00,   0.00, 1006.9,   82.6, -999.0
14-01-2023, 00:35:11,    206,    0.5,    5.8,   0.00,   0.00, 1006.9,   82.6, -999.0
14-01-2023, 00:35:21,    157,    2.9,    5.9,   0.00,   0.00, 1006.9,   82.9, -999.0
14-01-2023, 00:35:31,    190,    3.1,    5.9,   0.00,   0.00, 1006.9,   82.9, -999.0
14-01-2023, 00:35:41,    154,    1.1,    5.9,   0.00,   0.00, 1006.9,   83.0, -999.0
14-01-2023, 00:35:51,    186,    0.1,    5.7,   0.00,   0.00, 1006.8,   82.7, -999.0
14-01-2023, 00:36:01,    208,    0.8,    5.8,   0.00,   0.00, 1006.9,   82.8, -999.0
14-01-2023, 00:36:10,    207,    0.3,    5.8,   0.00,   0.01, 1006.8,   83.0, -999.0
14-01-2023, 00:36:21,    236,    0.4,    5.7,   0.00,   0.00, 1006.8,   83.0, -999.0
14-01-2023, 00:36:31,    168,    1.7,    5.8,   0.00,   0.00, 1006.9,   83.2, -999.0
14-01-2023, 00:36:41,    174,    0.2,    5.8,   0.00,   0.00, 1006.9,   83.2, -999.0
14-01-2023, 00:36:50,    184,    0.1,    5.7,   0.00,   0.00, 1006.8,   83.1, -999.0
14-01-2023, 00:37:01,    183,    0.0,    5.8,   0.00,   0.00, 1006.8,   83.1, -999.0
14-01-2023, 00:37:11,    197,    1.5,    5.7,   0.00,   0.00, 1006.9,   83.5, -999.0
14-01-2023, 00:37:20,    197,    0.3,    5.7,   0.00,   0.00, 1006.8,   83.5, -999.0
14-01-2023, 00:37:30,    191,    0.2,    5.7,   0.00,   0.01, 1006.8,   83.6, -999.0
14-01-2023, 00:37:41,    165,    0.7,    5.8,   0.00,   0.00, 1006.9,   83.9, -999.0
14-01-2023, 00:37:51,    200,    0.7,    5.7,   0.00,   0.00, 1006.9,   83.9, -999.0
14-01-2023, 00:38:00,    231,    0.4,    5.8,   0.00,   0.00, 1006.8,   83.9, -999.0
14-01-2023, 00:38:11,    201,    0.4,    5.7,   0.00,   0.00, 1006.8,   84.1, -999.0
14-01-2023, 00:38:21,    165,    0.0,    5.7,   0.00,   0.00, 1006.8,   83.9, -999.0
14-01-2023, 00:38:30,    182,    0.9,    5.7,   0.00,   0.00, 1006.9,   84.3, -999.0
14-01-2023, 00:38:40,    180,    0.6,    5.7,   0.00,   0.01, 1006.8,   84.2, -999.0
14-01-2023, 00:38:51,    179,    0.9,    5.7,   0.00,   0.00, 1006.9,   84.4, -999.0
14-01-2023, 00:39:00,    170,    1.4,    5.8,   0.00,   0.00, 1006.9,   84.4, -999.0
14-01-2023, 00:39:10,    171,    0.1,    5.7,   0.00,   0.00, 1006.8,   84.2, -999.0
14-01-2023, 00:39:20,    173,    0.5,    5.8,   0.00,   0.00, 1006.8,   84.7, -999.0
14-01-2023, 00:39:31,    202,    1.0,    5.7,   0.00,   0.00, 1006.8,   84.6, -999.0
14-01-2023, 00:39:40,    179,    1.0,    5.8,   0.00,   0.00, 1006.9,   84.7, -999.0
14-01-2023, 00:39:50,    183,    2.5,    5.8,   0.00,   0.00, 1006.9,   84.9, -999.0
14-01-2023, 00:40:00,    218,    2.6,    5.8,   0.00,   0.01, 1006.8,   84.9, -999.0
14-01-2023, 00:40:10,    187,    1.7,    5.8,   0.00,   0.00, 1006.8,   85.0, -999.0
14-01-2023, 00:40:20,    190,    0.3,    5.8,   0.00,   0.00, 1006.8,   84.7, -999.0
14-01-2023, 00:40:30,    191,    0.0,    5.7,   0.00,   0.00, 1006.7,   84.5, -999.0
14-01-2023, 00:40:40,    191,    0.0,    5.7,   0.00,   0.00, 1006.7,   84.7, -999.0
14-01-2023, 00:40:50,    211,    0.1,    5.7,   0.00,   0.00, 1006.7,   84.7, -999.0
14-01-2023, 00:41:00,    196,    1.1,    5.8,   0.00,   0.00, 1006.8,   84.8, -999.0
14-01-2023, 00:41:10,    155,    0.6,    5.8,   0.00,   0.00, 1006.8,   84.9, -999.0
14-01-2023, 00:41:20,    154,    0.6,    5.8,   0.00,   0.00, 1006.8,   85.0, -999.0
14-01-2023, 00:41:30,    157,    0.0,    5.7,   0.00,   0.00, 1006.7,   84.8, -999.0
14-01-2023, 00:41:40,    132,    0.6,    5.7,   0.00,   0.01, 1006.8,   85.0, -999.0
14-01-2023, 00:41:50,    184,    0.5,    5.8,   0.00,   0.00, 1006.8,   85.1, -999.0
14-01-2023, 00:42:00,    245,    0.3,    5.7,   0.00,   0.00, 1006.7,   85.1, -999.0
14-01-2023, 00:42:10,    194,    2.7,    5.8,   0.00,   0.00, 1006.7,   85.4, -999.0
14-01-2023, 00:42:20,    151,    1.8,    5.8,   0.00,   0.00, 1006.8,   85.4, -999.0
14-01-2023, 00:42:30,    152,    0.1,    5.7,   0.00,   0.00, 1006.7,   85.1, -999.0
14-01-2023, 00:42:40,    213,    2.1,    5.7,   0.00,   0.00, 1006.8,   85.4, -999.0
14-01-2023, 00:42:50,    199,    1.6,    5.8,   0.00,   0.00, 1006.7,   85.4, -999.0
14-01-2023, 00:43:00,    188,    1.0,    5.8,   0.00,   0.00, 1006.8,   85.4, -999.0
14-01-2023, 00:43:10,    123,    1.1,    5.8,   0.00,   0.01, 1006.7,   85.6, -999.0
14-01-2023, 00:43:20,    201,    1.1,    5.8,   0.00,   0.00, 1006.6,   85.5, -999.0
14-01-2023, 00:43:30,    205,    0.9,    5.8,   0.00,   0.00, 1006.7,   85.4, -999.0
14-01-2023, 00:43:40,    185,    0.3,    5.7,   0.00,   0.00, 1006.7,   85.4, -999.0
14-01-2023, 00:43:50,    173,    1.1,    5.8,   0.00,   0.00, 1006.7,   85.4, -999.0
14-01-2023, 00:44:00,    175,    1.3,    5.8,   0.00,   0.00, 1006.7,   85.5, -999.0
14-01-2023, 00:44:10,    144,    2.7,    5.8,   0.00,   0.00, 1006.7,   85.4, -999.0
14-01-2023, 00:44:20,    181,    1.3,    5.8,   0.00,   0.00, 1006.7,   85.4, -999.0
14-01-2023, 00:44:30,    205,    0.9,    5.8,   0.00,   0.00, 1006.7,   85.5, -999.0
14-01-2023, 00:44:40,    220,    1.3,    5.7,   0.00,   0.00, 1006.7,   85.5, -999.0
14-01-2023, 00:44:50,    197,    0.2,    5.7,   0.00,   0.00, 1006.6,   85.5, -999.0
14-01-2023, 00:45:00,    186,    0.1,    5.7,   0.00,   0.00, 1006.6,   85.5, -999.0
14-01-2023, 00:45:09,    176,    0.8,    5.7,   0.00,   0.01, 1006.6,   85.7, -999.0
14-01-2023, 00:45:20,    176,    0.1,    5.7,   0.00,   0.00, 1006.6,   85.7, -999.0
14-01-2023, 00:45:30,    184,    0.3,    5.7,   0.00,   0.00, 1006.6,   85.8, -999.0
14-01-2023, 00:45:40,    185,    0.2,    5.8,   0.00,   0.00, 1006.6,   86.0, -999.0
14-01-2023, 00:45:50,    186,    0.4,    5.7,   0.00,   0.00, 1006.6,   86.0, -999.0
14-01-2023, 00:46:00,    186,    0.0,    5.6,   0.00,   0.00, 1006.6,   86.0, -999.0
14-01-2023, 00:46:10,    185,    0.0,    5.6,   0.00,   0.00, 1006.5,   86.2, -999.0
14-01-2023, 00:46:19,    192,    0.0,    5.7,   0.00,   0.00, 1006.5,   86.4, -999.0
14-01-2023, 00:46:30,    242,    2.1,    5.7,   0.00,   0.00, 1006.6,   86.7, -999.0
14-01-2023, 00:46:40,    180,    0.8,    5.8,   0.00,   0.00, 1006.6,   86.8, -999.0
14-01-2023, 00:46:50,    180,    0.0,    5.6,   0.00,   0.00, 1006.5,   86.5, -999.0